Preview of NWS' New Version of Forecast
This preview is not operational and should not be used for support decisions.

Regional Weather Roundup (RWR)

Issued by Gray - Portland, ME (GYX)

                            
000
ASUS41 KGYX 170910
RWRGYX
WEATHER ROUNDUP FOR MAINE AND NEW HAMPSHIRE
NATIONAL WEATHER SERVICE GRAY ME
400 AM EST THU JAN 17 2019

MEZ002-005-006-010-012-015-018-020-021-024-026-027-029-171000-
MAINE
  
CITY           SKY/WX    TMP DP  RH WIND       PRES   REMARKS
PORTLAND       FAIR      14   0  53 NW6       30.27R                  
SANFORD        FAIR      11  -1  58 NW7       30.28R                  
BAR HARBOR     FAIR       8  -6  52 NW10G20   30.22R WCI  -6          
WISCASSET      FAIR      11  -2  56 MISG      30.27R                  
ROCKLAND       FAIR      11  -4  51 NW16G25   30.22R WCI  -6          
FRYEBURG       FAIR       8  -7  50 W5        30.24R                  
LEWISTONAUBURN FAIR      10  -3  55 NW10      30.25R WCI  -4          
AUGUSTA        FAIR       7  -5  57 NW7       30.24R                  
WATERVILLE     FAIR       6  -5  60 MISG      30.21R                  
BANGOR         FAIR       6  -6  57 NW9       30.23R                  
GREENVILLE       N/A     -3 -13  62 NW17G26   30.05R WCI -24          
MILLINOCKET    FAIR       0 -12  57 W14G24    30.18R WCI -19          
HOULTON        FAIR       0  -9  65 NW10G18   30.12R WCI -16          
PRESQUE ISLE   FAIR      -1  -9  68 W6G18     30.12R                  
FRENCHVILLE    FAIR      -4 -14  62 NW16G25   30.03R WCI -25          
CARIBOU        FAIR      -1 -12  59 NW8       30.07R                  
$$

NHZ002-005-008-009-011-012-014-171000-
NEW HAMPSHIRE
  
CITY           SKY/WX    TMP DP  RH WIND       PRES   REMARKS
PORTSMOUTH     CLEAR     14  -6  39 W10       30.27R WCI   1          
ROCHESTER      FAIR      12  -2  53 NW13      30.26R WCI  -3          
NASHUA         FAIR      16   3  56 N6        30.30R                  
MANCHESTER     FAIR      15   0  51 N10       30.29R WCI   2          
CONCORD        FAIR      11  -1  58 NW16G22   30.30R WCI  -6          
LACONIA        FAIR       7  -4  60 W9G16     30.29R                  
PLYMOUTH       FAIR       5  -4  65 CALM      30.29R                  
BERLIN         FAIR       2  -7  66 VRB5      30.20R                  
WHITEFIELD     FAIR      -6  -9  86 CALM      30.24R                  
JAFFREY        FAIR      13   1  59 CALM      30.22R                  
KEENE          FAIR      13   1  59 N8        30.30R                  
LEBANON        FAIR       2  -6  69 CALM      30.30R                  
MT WASHINGTON  PTCLDY   -15 -18  84 NW67G72     N/A  WCI -56          
$$

VTZ005-007-008-171000-
VERMONT
  
CITY           SKY/WX    TMP DP  RH WIND       PRES   REMARKS
ST JOHNSBURY     N/A      1  -8  66 MISG      30.29R                  
MONTPELIER     FAIR       1  -5  75 NW6       30.29R                  
BURLINGTON     CLOUDY     4  -5  66 NE8       30.37R                  
$$

MAZ007-012-024-CTZ003-RIZ002-NYZ038-NYZ072-171000-
SOUTHERN NEW ENGLAND AND NY
  
CITY           SKY/WX    TMP DP  RH WIND       PRES   REMARKS
BOSTON         FAIR      23   2  40 NW12      30.29R WCI  12          
WORCESTER      FAIR      17   1  49 W13       30.21R WCI   4          
NANTUCKET      FAIR      30  15  53 NW16G24   30.22R WCI  19          
PROVIDENCE     FAIR      26  10  50 NW7       30.27R                  
HARTFORD       FAIR      21   5  50 NW15      30.31R WCI   8          
ALBANY         FAIR      13  -3  49 NW9       30.37R                  
NEW YORK CITY  MOCLDY    28   9  44 NW13      30.32R WCI  17          
$$

ANZ081-ANZ082-ANZ150-NHZ014-MEZ023>029-171000-
COASTAL MARINE OBSERVATIONS
  
STATION/POSITION TIME  TEMP    WIND        PRES    WAVE
                       AIR SEA DIR/SP/G            HT/PER
                 (UTC) (F)     (DEG/KT/KT) (MB)    (FT/S)
MOUNT DESERT ROC 0900   17     300/ 32/ 36 1021.6R
MATINICUS ROCK   0800   19     320/ 25/ 28 1021.2R
ISLE OF SHOALS   0800   19     300/ 25/ 27 1023.6R
JEFFREYS LEDGE   0838      43                N/A     6/ 6
CASHES LEDGE BUO 0850   22 40              1022.7R   8/ 6
$$

.............KEY..............
   WCI - WIND CHILL
   TC  - TEMPERATURE IN CELSIUS
   VSB - VISIBILITY IN MILES
   HX  - HEAT INDEX
   FAIR- INDICATES FEW OR NO CLOUDS BELOW 12,000 FT, WITH NO 
         SIGNIFICANT WEATHER AND/OR OBSTRUCTIONS TO VISIBILITY.